TimePDT,TemperatureF,Dew PointF,Humidity,Sea Level PressureIn,VisibilityMPH,Wind Direction,Wind SpeedMPH,Gust SpeedMPH,PrecipitationIn,Events,Conditions,WindDirDegrees,DateUTC
12:52 AM,46.9,37.0,68,30.03,10.0,ENE,6.9,-,N/A,,Clear,70,2012-06-07 07:52:00
1:52 AM,45.0,36.0,71,30.01,10.0,ESE,3.5,-,N/A,,Clear,120,2012-06-07 08:52:00
2:52 AM,43.0,36.0,76,30.00,10.0,East,3.5,-,N/A,,Clear,100,2012-06-07 09:52:00
3:52 AM,41.0,35.1,79,29.99,10.0,NNE,6.9,-,N/A,,Clear,30,2012-06-07 10:52:00
4:52 AM,39.0,34.0,82,29.99,10.0,North,6.9,-,N/A,,Clear,360,2012-06-07 11:52:00
5:52 AM,41.0,35.1,79,29.97,10.0,NNE,6.9,-,N/A,,Clear,20,2012-06-07 12:52:00
6:52 AM,44.1,37.0,76,29.96,10.0,NNE,8.1,-,N/A,,Clear,20,2012-06-07 13:52:00
7:52 AM,50.0,39.0,66,29.95,10.0,NE,4.6,-,N/A,,Overcast,40,2012-06-07 14:52:00
8:52 AM,52.0,39.0,61,29.96,10.0,NW,10.4,-,N/A,,Overcast,310,2012-06-07 15:52:00
9:52 AM,53.1,39.9,61,29.93,10.0,North,12.7,-,N/A,,Overcast,360,2012-06-07 16:52:00
10:52 AM,57.9,42.1,56,29.90,10.0,NNE,12.7,-,N/A,,Overcast,20,2012-06-07 17:52:00
11:52 AM,57.9,43.0,58,29.91,10.0,West,18.4,-,N/A,,Overcast,280,2012-06-07 18:52:00
12:52 PM,53.1,45.0,74,29.94,10.0,West,13.8,-,0.00,Rain,Light Rain,280,2012-06-07 19:52:00
1:52 PM,53.1,48.9,86,29.94,10.0,Calm,Calm,-,0.04,Rain,Light Rain,0,2012-06-07 20:52:00
2:52 PM,55.0,48.9,80,29.95,10.0,South,10.4,-,0.02,,Overcast,180,2012-06-07 21:52:00
3:13 PM,55.4,50.0,82,29.93,10.0,SSE,12.7,-,N/A,,Overcast,160,2012-06-07 22:13:00
3:52 PM,54.0,46.9,77,29.94,10.0,South,11.5,-,N/A,,Overcast,190,2012-06-07 22:52:00
3:59 PM,55.4,48.2,77,29.93,10.0,South,10.4,-,N/A,,Overcast,190,2012-06-07 22:59:00
4:52 PM,57.0,48.0,72,29.94,10.0,South,9.2,-,N/A,,Scattered Clouds,190,2012-06-07 23:52:00
5:15 PM,60.8,48.2,63,29.92,10.0,SSW,11.5,-,N/A,,Mostly Cloudy,210,2012-06-08 00:15:00
5:22 PM,59.0,48.2,67,29.92,10.0,Variable,6.9,-,N/A,,Mostly Cloudy,0,2012-06-08 00:22:00
5:52 PM,59.0,48.0,67,29.92,10.0,SSW,9.2,-,N/A,,Mostly Cloudy,210,2012-06-08 00:52:00
6:09 PM,59.0,48.2,67,29.91,10.0,South,4.6,-,N/A,,Mostly Cloudy,190,2012-06-08 01:09:00
6:52 PM,61.0,48.9,64,29.91,10.0,South,9.2,-,N/A,,Overcast,170,2012-06-08 01:52:00
7:05 PM,59.0,48.2,67,29.90,10.0,South,8.1,-,N/A,,Overcast,190,2012-06-08 02:05:00
7:52 PM,57.9,50.0,75,29.90,10.0,South,5.8,-,N/A,,Overcast,170,2012-06-08 02:52:00
8:38 PM,55.4,46.4,72,29.90,10.0,South,10.4,-,0.00,Thunderstorm,Mostly Cloudy,180,2012-06-08 03:38:00
8:52 PM,55.9,45.0,67,29.91,10.0,South,9.2,-,0.00,,Overcast,180,2012-06-08 03:52:00
9:52 PM,55.0,46.9,74,29.92,10.0,WNW,3.5,-,N/A,,Overcast,290,2012-06-08 04:52:00
10:35 PM,53.6,46.4,77,29.90,10.0,North,5.8,-,N/A,,Overcast,350,2012-06-08 05:35:00
10:52 PM,53.1,46.9,80,29.91,10.0,NNW,5.8,-,N/A,,Overcast,330,2012-06-08 05:52:00
11:52 PM,53.1,46.9,80,29.89,10.0,Calm,Calm,-,N/A,,Overcast,0,2012-06-08 06:52:00